FW7738 Weather Reports


Display with metric or nautical units.
time (UTC)temp
F
wind
direction
speed
MPH
gust
MPH
rain 1hr
in
rain 24hr
in
rain mn
in
humidity
%
barometer
mb
20260510111018 72 228 1.0 6.0 0.00 0.14 0.00 52 1011.8
20260510110035 72 197 3.0 8.0 0.00 0.16 0.00 52 1011.9
20260510105030 74 255 2.0 6.0 0.00 0.18 0.00 50 1011.9
20260510104025 72 143 2.0 4.0 0.00 0.20 0.00 52 1012.1
20260510103021 72 206 2.0 7.0 0.00 0.22 0.00 53 1012.2
20260510102057 71 263 1.0 6.0 0.00 0.23 0.00 54 1012.3
20260510101032 71 278 1.0 4.0 0.00 0.24 0.00 55 1012.4
20260510100027 71 149 2.0 4.0 0.00 0.28 0.00 56 1012.5
20260510095022 70 200 1.0 6.0 0.00 0.30 0.00 58 1012.7
20260510094037 69 213 4.0 7.0 0.00 0.33 0.00 59 1012.7
20260510093034 68 198 2.0 8.0 0.00 0.36 0.00 60 1012.9
20260510092029 68 225 2.0 4.0 0.00 0.38 0.00 61 1012.8
20260510091025 69 180 2.0 7.0 0.00 0.42 0.00 61 1012.9
20260510090020 68 234 1.0 4.0 0.00 0.44 0.00 63 1012.8
20260510085015 66 160 2.0 4.0 0.00 0.47 0.00 67 1012.9
20260510084051 65 213 1.0 2.0 0.00 0.51 0.00 71 1012.9
20260510083027 64 242 1.0 4.0 0.00 0.55 0.00 72 1013.0
20260510082042 64 211 1.0 3.0 0.00 0.57 0.00 75 1013.1
20260510081017 63 248 1.0 3.0 0.00 0.59 0.00 77 1013.1
20260510080033 63 238 2.0 3.0 0.00 0.60 0.00 79 1013.2
20260510075028 62 255 2.0 4.0 0.00 0.60 0.00 79 1013.2
20260510074044 62 268 1.0 3.0 0.00 0.60 0.00 80 1013.2
20260510073059 62 226 1.0 3.0 0.00 0.60 0.00 80 1013.1
20260510072034 61 274 2.0 4.0 0.00 0.60 0.00 80 1013.1
20260510071031 61 247 3.0 8.0 0.00 0.60 0.00 81 1013.0
20260510070025 60 254 2.0 4.0 0.00 0.60 0.00 83 1012.9
20260510065020 59 259 1.0 4.0 0.00 0.60 0.00 84 1012.8
20260510064016 59 312 0.0 2.0 0.00 0.60 0.00 84 1012.7
20260510063031 58 260 2.0 3.0 0.00 0.60 0.00 85 1012.5
20260510062026 58 250 2.0 7.0 0.00 0.60 0.00 85 1012.4
20260510061021 58 268 2.0 4.0 0.00 0.60 0.00 87 1012.5
20260510060037 57 250 2.0 4.0 0.00 0.60 0.00 88 1012.4
20260510055053 57 248 2.0 4.0 0.00 0.60 0.00 91 1012.2
20260510054049 56 244 2.0 6.0 0.00 0.60 0.00 93 1012.1
20260510053024 56 263 1.0 3.0 0.00 0.60 0.00 94 1012.0
20260510052019 56 248 1.0 3.0 0.00 0.60 0.00 95 1011.9
20260510051034 56 252 0.0 2.0 0.00 0.60 0.00 95 1011.8
20260510050030 56 290 0.0 1.0 0.00 0.60 0.00 95 1011.7
20260510045025 56 291 0.0 1.0 0.00 0.60 0.00 95 1011.8
20260510044020 56 260 1.0 2.0 0.00 0.60 0.00 95 1011.7
20260510043016 56 239 2.0 4.0 0.00 0.60 0.00 95 1011.6
20260510042031 56 246 1.0 2.0 0.00 0.60 0.00 95 1011.7
20260510041026 56 274 0.0 2.0 0.00 0.60 0.00 95 1011.8
20260510040022 56 263 0.0 1.0 0.00 0.60 0.00 95 1011.7
20260510035017 57 249 1.0 2.0 0.00 0.60 0.00 95 1011.7
20260510034033 57 298 0.0 1.0 0.00 0.60 0.00 95 1011.7
20260510033028 57 245 0.0 1.0 0.00 0.60 0.00 95 1011.6
20260510032024 57 280 0.0 1.0 0.00 0.60 0.00 95 1011.5
20260510031019 57 211 1.0 1.0 0.00 0.60 0.00 95 1011.7
20260510030034 57 0.0 0.0 0.00 0.60 0.00 94 1011.6
20260510025029 58 330 0.0 2.0 0.00 0.60 0.00 95 1011.7
20260510024025 58 306 1.0 1.0 0.00 0.60 0.00 95 1011.6
20260510023020 57 297 1.0 2.0 0.00 0.60 0.00 95 1011.8
20260510022016 57 303 1.0 2.0 0.00 0.60 0.00 95 1011.8
20260510021051 57 349 0.0 1.0 0.00 0.60 0.00 95 1011.7
20260510020027 57 337 0.0 1.0 0.00 0.60 0.00 95 1011.7
20260510015022 57 329 0.0 1.0 0.00 0.60 0.00 95 1011.7
20260510014017 57 10 2.0 4.0 0.00 0.60 0.00 95 1011.7
20260510013033 58 0.0 0.0 0.00 0.60 0.00 95 1011.7
20260510012028 58 0.0 0.0 0.00 0.60 0.00 95 1011.7
20260510011024 58 288 0.0 1.0 0.00 0.60 0.00 95 1011.9
20260510010019 59 303 1.0 2.0 0.00 0.60 0.00 95 1011.9
20260510005034 59 301 0.0 1.0 0.00 0.60 0.00 94 1012.1
20260510004030 59 314 1.0 2.0 0.00 0.60 0.00 94 1012.2
20260510003025 59 300 1.0 2.0 0.00 0.60 0.00 94 1012.2
20260510002021 59 289 1.0 2.0 0.00 0.60 0.00 94 1012.4
20260510001017 59 284 1.0 2.0 0.00 0.60 0.00 94 1012.4
20260510000032 59 331 1.0 2.0 0.00 0.60 0.60 94 1012.5
20260509235028 59 317 0.0 1.0 0.00 0.60 0.60 94 1012.4
20260509234023 60 288 0.0 1.0 0.00 0.60 0.60 94 1012.5
20260509233018 60 299 0.0 1.0 0.00 0.60 0.60 94 1012.6
20260509232034 60 308 0.0 1.0 0.00 0.60 0.60 93 1012.6
20260509231029 60 302 0.0 1.0 0.00 0.60 0.60 93 1012.7
20260509230025 60 292 0.0 1.0 0.00 0.59 0.59 93 1012.8
20260509225020 60 307 0.0 1.0 0.00 0.59 0.59 92 1012.6
20260509224016 60 357 1.0 2.0 0.00 0.59 0.59 92 1012.7
20260509223051 60 1 0.0 1.0 0.00 0.59 0.59 91 1012.8
20260509222046 60 0.0 0.0 0.00 0.59 0.59 91 1012.8
20260509221021 60 0.0 0.0 0.00 0.59 0.59 91 1012.8
20260509220017 60 281 1.0 2.0 0.00 0.59 0.59 91 1013.2
20260509215032 60 317 0.0 1.0 0.00 0.59 0.59 91 1013.3
20260509214027 60 321 2.0 4.0 0.00 0.59 0.59 90 1013.1
20260509213022 60 337 1.0 3.0 0.00 0.59 0.59 90 1012.7
20260509212018 60 316 2.0 2.0 0.00 0.59 0.59 90 1012.7
20260509211034 60 354 0.0 2.0 0.00 0.59 0.59 90 1012.5
20260509210029 60 354 0.0 1.0 0.00 0.59 0.59 89 1012.5
20260509205024 61 0.0 0.0 0.00 0.59 0.59 89 1012.5
20260509204020 61 0.0 0.0 0.00 0.59 0.59 88 1012.5
20260509203016 61 0.0 0.0 0.00 0.59 0.59 88 1012.4
20260509202031 61 0.0 0.0 0.00 0.59 0.59 88 1012.4
20260509201026 61 0.0 0.0 0.00 0.59 0.59 87 1012.2
20260509200042 62 120 0.0 1.0 0.00 0.59 0.59 86 1011.9
20260509195017 62 80 0.0 2.0 0.00 0.59 0.59 86 1011.7
20260509194033 62 76 0.0 1.0 0.00 0.59 0.59 86 1011.9
20260509193028 62 84 0.0 1.0 0.00 0.59 0.59 86 1011.8
20260509192023 62 0.0 0.0 0.00 0.59 0.59 86 1011.6
20260509191039 62 85 0.0 1.0 0.00 0.59 0.59 86 1011.3
20260509190034 62 80 0.0 1.0 0.00 0.59 0.59 85 1011.2
20260509185030 62 93 1.0 2.0 0.00 0.59 0.59 85 1011.1
20260509184025 62 97 1.0 3.0 0.00 0.59 0.59 84 1010.7
20260509183020 62 97 2.0 4.0 0.00 0.59 0.59 84 1010.7
20260509182016 62 100 3.0 6.0 0.00 0.59 0.59 83 1010.7
20260509181032 63 118 5.0 9.0 0.00 0.59 0.59 82 1010.6
20260509180047 63 122 7.0 10.0 0.00 0.59 0.59 81 1010.5
20260509175023 64 133 6.0 10.0 0.00 0.59 0.59 80 1010.4
20260509174018 64 145 5.0 10.0 0.00 0.59 0.59 78 1010.1
20260509173033 64 130 5.0 9.0 0.00 0.59 0.59 77 1009.9
20260509172029 64 124 7.0 13.0 0.00 0.59 0.59 76 1009.9
20260509171024 64 128 8.0 11.0 0.00 0.59 0.59 77 1009.7
20260509170020 65 136 5.0 10.0 0.00 0.59 0.59 78 1009.5
20260509165035 65 118 5.0 9.0 0.00 0.59 0.59 77 1009.6
20260509164030 65 132 4.0 8.0 0.00 0.59 0.59 77 1009.7
20260509163026 65 131 6.0 10.0 0.00 0.59 0.59 78 1009.8
20260509162021 65 92 3.0 10.0 0.00 0.59 0.59 74 1009.7
20260509161016 65 99 4.0 8.0 0.00 0.59 0.59 74 1009.9
20260509160032 65 87 3.0 8.0 0.00 0.59 0.59 75 1009.8
20260509155047 66 103 5.0 9.0 0.00 0.59 0.59 75 1010.0
20260509154023 65 79 2.0 6.0 0.00 0.59 0.59 77 1010.0
20260509153018 65 81 2.0 8.0 0.00 0.59 0.59 77 1010.1
20260509152034 65 78 2.0 7.0 0.00 0.59 0.59 77 1010.1
20260509151029 64 71 3.0 7.0 0.00 0.59 0.59 79 1009.9
20260509150025 64 61 2.0 9.0 0.00 0.59 0.59 80 1009.9
20260509145020 64 56 3.0 11.0 0.00 0.59 0.59 80 1010.1
20260509144055 64 47 2.0 7.0 0.00 0.59 0.59 79 1010.0
20260509143031 63 43 2.0 6.0 0.00 0.59 0.59 80 1010.0
20260509142026 63 54 2.0 7.0 0.00 0.59 0.59 83 1010.3
20260509141022 62 21 1.0 2.0 0.00 0.59 0.59 89 1010.3
20260509140017 60 40 3.0 7.0 0.00 0.59 0.59 92 1010.2
20260509135033 61 31 1.0 3.0 0.00 0.59 0.59 94 1010.2
20260509134048 61 291 1.0 3.0 0.01 0.59 0.59 94 1010.3
20260509133023 61 260 1.0 3.0 0.02 0.59 0.59 95 1010.2
20260509132019 60 61 3.0 9.0 0.02 0.59 0.59 95 1009.0
20260509131034 60 62 3.0 7.0 0.04 0.59 0.59 95 1009.3
20260509130030 60 49 3.0 8.0 0.05 0.59 0.59 95 1010.0
20260509125025 60 15 1.0 3.0 0.06 0.59 0.59 95 1010.7
20260509124020 60 0.0 0.0 0.08 0.58 0.58 95 1011.0
20260509123015 60 287 1.0 2.0 0.08 0.57 0.57 95 1011.3
20260509122031 60 288 1.0 2.0 0.09 0.57 0.57 95 1011.3
20260509121026 60 273 1.0 3.0 0.09 0.56 0.56 95 1011.5
20260509120041 59 269 1.0 2.0 0.09 0.54 0.54 95 1011.7
20260509115017 59 261 2.0 3.0 0.10 0.52 0.52 95 1011.5
20260509114052 59 263 3.0 6.0 0.10 0.50 0.50 94 1011.5
20260509113028 59 263 2.0 4.0 0.11 0.49 0.49 94 1011.4
20260509112023 59 261 3.0 6.0 0.10 0.48 0.48 94 1011.1